This demonstration page uses our WeatherBlox Daily Observations layout. Learn more.

Left ArrowRight Arrow

44.89941, -97.11507

Hourly Observations for May 21, 2019

Temp ( °F °C ) Dew Point ( °F °C ) Humidity (%) Winds ( mph kmh ) Pressure ( in mb ) Visibility ( mi km ) Precip ( " mm )
12:53 am 00:53 Clear 50 10 39 3.9 66 66 E 8 13 30.06 1018 10 16 0.00 0.00
1:53 am 01:53 Clear 50 10 38 3.3 63 63 E 8 13 30.04 1017 10 16 0.00 0.00
2:53 am 02:53 Clear 50 10 39 3.9 66 66 ESE 7 11 30.03 1017 10 16 0.00 0.00
3:53 am 03:53 Cloudy 49 9.4 38 3.3 66 66 ESE 8 13 30.04 1017 10 16 0.00 0.00
4:53 am 04:53 Clear 49 9.4 38 3.3 66 66 E 9 15 30.02 1017 10 16 0.00 0.00
5:53 am 05:53 Mostly Clear 48 8.9 39 3.9 71 71 ENE 10 17 30.01 1016 10 16 0.00 0.00
6:53 am 06:53 Partly Cloudy 47 8.3 39 3.9 74 74 ENE 9 15 29.98 1015 10 16 0.00 0.00
7:53 am 07:53 Sunny 48 8.9 39 3.9 71 71 E 12 19 29.98 1015 10 16 0.00 0.00
8:53 am 08:53 Sunny 50 10 39 3.9 66 66 E 16 26 29.97 1015 10 16 0.00 0.00
9:53 am 09:53 Sunny 51 10.6 39 3.9 64 64 E 16 26 29.95 1014 10 16 0.00 0.00
10:53 am 10:53 Sunny 53 11.7 38 3.3 57 57 E 21 33 29.91 1013 10 16 0.00 0.00
11:53 am 11:53 Cloudy 53 11.7 38 3.3 57 57 E 20 31 29.90 1013 10 16 0.00 0.00
1:53 pm 13:53 Cloudy 53 11.7 38 3.3 57 57 E 18 30 29.85 1011 10 16 0.00 0.00
2:53 pm 14:53 Cloudy 53 11.7 38 3.3 57 57 E 24 39 29.81 1009 10 16 0.00 0.00
3:53 pm 15:53 Cloudy 54 12.2 38 3.3 55 55 E 26 43 29.75 1008 10 16 0.00 0.00
4:53 pm 16:53 Cloudy with Light Rain 53 11.7 39 3.9 59 59 E 22 35 29.73 1007 10 16 0.00 0.03
5:53 pm 17:53 Cloudy 50 10 40 4.4 68 68 E 17 28 29.71 1006 10 16 0.00 0.03
6:53 pm 18:53 Cloudy 47 8.3 41 5 80 80 E 18 30 29.70 1006 10 16 0.00 0.03
7:47 pm 19:47 Cloudy with Light Rain 45 7 43 6 93 93 E 20 31 29.68 1005 4 6 0.01 0.25
7:53 pm 19:53 Cloudy with Light Rain 45 7.2 42 5.6 90 90 ENE 23 37 29.67 1005 6 10 0.01 0.25
8:07 pm 20:07 Cloudy with Light Rain 46 7.8 42 5.6 86 86 E 25 41 29.65 1004 10 16 0.00 0.03
8:53 pm 20:53 Cloudy with Mist and Fog 45 7.2 42 5.6 90 90 E 25 41 29.60 1002 5 8 0.01 0.25
9:53 pm 21:53 Cloudy with Rain 45 7.2 42 5.6 90 90 E 24 39 29.59 1002 4 6 0.07 1.78
10:07 pm 22:07 Cloudy with Rain 45 7.2 42 5.6 90 90 E 21 33 29.60 1002 3 5 0.06 1.52
10:53 pm 22:53 Cloudy with Rain 45 7.2 42 5.6 90 90 E 18 30 29.58 1002 4 6 0.13 3.30
11:34 pm 23:34 Cloudy with Rain 44 6.7 42 5.6 93 93 E 25 41 29.58 1002 8 13 0.09 2.29
11:50 pm 23:50 Cloudy with Light Rain 45 7 43 6 93 93 E 21 33 29.57 1001 7 11 0.11 2.79
11:53 pm 23:53 Cloudy with Light Rain 44 6.7 42 5.6 93 93 E 21 33 29.54 1001 7 11 0.11 2.79

Powered by AerisWeather